P/2007 B1 (Christensen)

Epoch 2007 Jan. 20.0 TT = JDT 2454120.5  

T 2007 Jan. 19.94235 TT                                 Nakano

q   2.4427600            (2000.0)            P               Q

n   0.07001827     Peri.   46.90030     -0.55251107     -0.80675694

a   5.8299095      Node    77.78667     +0.68888228     -0.58346177

e   0.5809952      Incl.   12.37526     +0.46922566     -0.09335736

P  14.08 (+/- 0.04 day)

From 118 observations 2007 Jan. 17-2007 Mar. 23, mean residual 0".57.

Residuals in seconds of arc 

2007/                     070121 232  0.3-  1.5-    070209 215  1.3+  0.2-  

070117 703  0.8-  0.8-    070121 300  0.2+  0.1-    070209 213  0.1-  0.2+  

070117 703  0.9-  0.0     070121 300  0.4+  0.8+    070209 213  0.0   0.1+  

070117 703  1.4-  0.2+    070121 300  0.3+  0.3+    070209 213  0.0   0.0   

070117 703  0.1-  0.1-    070122 349  0.5-  0.3+    070212 349  0.5+  1.1-  

070117 703  0.4-  0.1-    070122 349  0.7-  0.1-    070212 349  0.4+  1.0-  

070117 703  0.0   0.2-    070125 703  0.9-  0.5-    070216 673  0.1+  0.5+  

070117 703  0.2+  0.0     070125 703  1.0-  0.6+    070216 673  0.1+  0.2+  

070117 703  0.3-  0.8+    070125 703  0.1-  0.7-    070216 673  0.1-  0.6+  

070117 703  0.9-  0.3-    070125 703  0.6-  0.3-    070216 673  0.4+  0.7+  

070117 703  1.3-  0.5+    070125 372  1.4-  0.3-    070216 104 (0.0   4.2+) 

070118 118  0.2-  0.0     070125 A32  0.1+  0.6-    070216 104  0.5-  0.5+  

070118 118  1.3+  0.9+    070125 A32  0.3-  0.7-    070216 104  0.4-  1.4-  

070118 118  0.7+  0.3+    070126 213  0.2-  0.4-    070217 J70  0.5-  0.3+  

070118 118  0.1-  0.3-    070126 213  0.2-  0.3-    070217 J70  0.4+  0.1+  

070119 734  0.3+  0.3-    070126 213  0.1-  0.3-    070217 J70  0.9-  0.0   

070119 734  0.4+  1.0-    070127 213  1.0+  0.3+    070217 J70 (2.3-  0.5-) 

070119 734  0.5+  0.7-    070127 213  1.0+  0.2+    070219 213  0.0   0.5+  

070119 470  0.8+  0.0     070127 213  0.9+  0.3+    070219 213  0.1-  0.7+  

070119 204  0.2+  0.2-    070128 232  1.2+  0.3+    070219 213  0.1-  0.5+  

070120 176  0.0   0.0     070128 232  0.1+  0.5+    070221 372  0.6-  0.0   

070120 176  0.1+  0.0     070128 147  0.8-  0.4+    070222 170  1.0+  0.2-  

070120 176  0.0   0.1-    070128 232  0.6-  0.3+    070222 170  0.7+  0.2-  

070120 176  0.1-  0.2-    070128 147  1.3-  1.1+    070222 170  0.7+  0.2+  

070120 204  0.0   0.2-    070128 204  0.6-  0.2+    070225 213  0.3+  0.3-  

070120 473  0.1-  0.1+    070128 204  0.1+  0.0     070225 213  0.2+  0.5-  

070120 473  0.2+  0.1-    070204 J95  0.2+  0.7-    070225 213  0.3+  0.6-  

070120 473  0.1+  0.2-    070204 J95  0.2-  0.4-    070303 213  0.2-  0.3+  

070120 473  0.6+  0.3+    070205 104 (2.3+  0.4-)   070303 213  0.0   0.3+  

070120 473  0.1+  0.1-    070205 104  0.1+  0.1+    070303 213  0.2-  0.4+  

070120 H55  0.3+  0.1+    070205 104  1.6-  0.2-    070319 213  0.5+  0.1+  

070120 H55  0.1+  0.1+    070205 104  1.0-  0.4+    070319 213  0.4+  0.1-  

070120 H55  0.1+  0.1+    070206 699  0.4-  0.0     070322 300  0.5+  0.5-  

070120 673  0.6+  0.2+    070206 699  0.9-  1.8+    070322 300  0.3+  0.2+  

070120 673  0.7+  0.0     070206 699  1.2+  0.2+    070322 300  0.3-  0.2+  

070120 673  0.5+  0.3+    070206 699  1.6+  0.2+    070322 300  0.4-  0.2+  

070120 673  0.7+  0.2+    070208 673  0.4+  0.2+    070323 J70 (3.1+  0.3-) 

070120 673  0.7+  0.1+    070208 673  0.5+  0.2+    070323 J70 (3.8-  2.5+) 

070120 673  0.6+  0.4+    070208 673  0.4+  0.4+    070323 J70  0.6-  0.5-  

070120 673  0.4+  0.6+    070208 673  0.1+  0.2+    070323 J70  1.6-  0.8-  

070120 J70 (2.1-  3.1-)   070209 703  0.1+  0.4-    070323 J70 (4.6-  0.6+) 

070121 232  0.4-  1.3-    070209 703  1.5-  0.7-                            

070121 232 (0.1+  2.2-)   070209 215  0.5+  0.1+                            



NAKANO

         **** Don't distribute anyone except personal use only ****

                (C) Copyright 2007 OAA/ComputingSection

write mail from CFAD0::NAKANO on 2007-05-04 04:01:44(JST).

    P/2007 B1 (Christensen)

T 2007 Jan. 19.93411 TT                                 Nakano

q   2.4427258            (2000.0)            P               Q

n   0.07002150     Peri.   46.89704     -0.55247292     -0.80678298

a   5.8297299      Node    77.78722     +0.68891071     -0.58342955

e   0.5809882      Incl.   12.37526     +0.46922884     -0.09333374

P  14.08 (+/- 0.17 day)

From 103 observations 2007 Jan. 17-Feb. 22.



NAKANO

         **** Don't distribute anyone except personal use only ****

                (C) Copyright 2007 OAA/ComputingSection

write mail from CFAD0::NAKANO on 2007-03-05 06:22:02(JST).



    P/2007 B1 (Christensen)

T 2007 Jan. 19.93411 TT                                 Nakano

q   2.4427258            (2000.0)            P               Q

n   0.07002150     Peri.   46.89704     -0.55247292     -0.80678298

a   5.8297299      Node    77.78722     +0.68891071     -0.58342955

e   0.5809882      Incl.   12.37526     +0.46922884     -0.09333374

P  14.08 (+/- 0.17 day)

From 103 observations 2007 Jan. 17-Feb. 22.

                         

NAKANO

         **** Don't distribute anyone except personal use only ****

                (C) Copyright 2007 OAA/ComputingSection

write mail from CFAD0::NAKANO on 2007-03-05 06:21:26(JST).

 

    P/2007 B1 (Christensen)

T 2007 Jan. 20.02848 TT                                 Nakano

q   2.4423526            (2000.0)            P               Q

n   0.07005581     Peri.   46.93708     -0.55289884     -0.80650706

a   5.8278266      Node    77.77697     +0.68861100     -0.58376224

e   0.5809154      Incl.   12.37207     +0.46916711     -0.09363767

P  14.07 (+/- 0.44 day)

From 79 observations 2007 Jan. 17-Feb. 9.



NAKANO

         **** Don't distribute anyone except personal use only ****

                (C) Copyright 2007 OAA/ComputingSection

write mail from CFAD0::NAKANO on 2007-02-11 07:48:38(JST).

 







◎P/2007 B1の軌道と予報位置    [From YC 2542]

  月惑星研究所のクリステンセンは,カテリナ・スカイサーベイの 68-cmシュ

ミットで2007年1月17日にかに座を撮影した CCDフレーム上に18等級の新彗星

を発見した.発見時,彗星には 10"のコマと西南西に 15"の尾が見られた.発

見直後に行なわれた追跡観測では,彗星には 10"ほどのコマと 16"の尾が見ら

れている(IAUC 8797).

  彗星は,美星でも,浅見敦夫氏と浦川氏によって 1.0-m反射で1月21日に捕

らえられた.上尾の門田健一氏も1月22日の追跡観測を報告している. CCD全

光度は,それぞれ,18.7等と18.5等であった.

  OAA 計算課では,2007年1月17日から22日までに行なわれた40個の観測から

次の軌道を決定した.彗星は,周期が約13年の新周期彗星であったが,周期は,

まだ,不確かである.



    P/2007 B1 (Christensen)

T 2007 Jan. 28.05109 TT                                 Nakano

q   2.4193724            (2000.0)            P               Q

n   0.07261243     Peri.   50.29461     -0.58915034     -0.78155398

a   5.6902160      Node    77.00257     +0.66187920     -0.61239712

e   0.5748189      Incl.   12.15259     +0.46348442     -0.11892499

P  13.57 (+/- 5.06 days)

From 40 observations 2007 Jan. 17-22.

 

Date/        TT  R.A.(2000) Decl.     Delta   r     Daily motion  Mag.  Moon Age

              h    h  m       。  ,                      ,  / PA 。  m1      。

2007 Jan. 20 18  08 55.77  +32 57.6   1.460  2.420    10.2 / 319  18.2  161  .03

          21 18  08 55.25  +33 05.3   1.459  2.420    10.2 / 318  18.2  149  .09

          22 18  08 54.71  +33 12.9   1.458  2.420    10.1 / 317  18.2  135  .16

          23 18  08 54.16  +33 20.3   1.457  2.420    10.1 / 316  18.2  121  .26

          24 18  08 53.61  +33 27.6   1.457  2.420    10.0 / 315  18.2  107  .36

          25 18  08 53.04  +33 34.7   1.456  2.419     9.9 / 314  18.2   93  .48

          26 18  08 52.47  +33 41.6   1.456  2.419     9.8 / 313  18.2   79  .59

          27 18  08 51.90  +33 48.4   1.456  2.419     9.7 / 312  18.2   65  .69

          28 18  08 51.32  +33 54.9   1.457  2.419     9.6 / 311  18.2   52  .79

          29 18  08 50.74  +34 01.3   1.458  2.419     9.5 / 310  18.2   39  .87

          30 18  08 50.15  +34 07.4   1.459  2.419     9.4 / 309  18.2   27  .93

          31 18  08 49.57  +34 13.3   1.460  2.420     9.2 / 308  18.2   16  .98

     Feb.  1 18  08 48.99  +34 19.1   1.461  2.420     9.0 / 308  18.2   13 1.00

           2 18  08 48.41  +34 24.6   1.463  2.420     8.9 / 307  18.2   19 1.00

           3 18  08 47.83  +34 29.8   1.465  2.420     8.7 / 306  18.2   30  .98

           4 18  08 47.26  +34 34.9   1.467  2.420     8.5 / 305  18.2   42  .94

           5 18  08 46.70  +34 39.7   1.470  2.420     8.3 / 304  18.2   53  .89

           6 18  08 46.14  +34 44.3   1.473  2.421     8.0 / 303  18.2   65  .82

           7 18  08 45.59  +34 48.6   1.476  2.421     7.8 / 302  18.2   77  .74

           8 18  08 45.05  +34 52.7   1.479  2.421     7.6 / 301  18.2   88  .66

           9 18  08 44.52  +34 56.6   1.482  2.422     7.3 / 300  18.2  100  .56

          10 18  08 44.01  +35 00.2   1.486  2.422     7.0 / 299  18.2  112  .47

          11 18  08 43.50  +35 03.6   1.490  2.423     6.8 / 297  18.2  124  .37

          12 18  08 43.01  +35 06.7   1.494  2.423     6.5 / 296  18.2  136  .28

          13 18  08 42.54  +35 09.6   1.498  2.423     6.2 / 295  18.2  148  .19

          14 18  08 42.08  +35 12.2   1.503  2.424     5.9 / 294  18.2  160  .11

          15 18  08 41.64  +35 14.5   1.508  2.424     5.6 / 292  18.2  167  .05

          16 18  08 41.22  +35 16.7   1.513  2.425     5.3 / 291  18.2  162  .01

          17 18  08 40.82  +35 18.5   1.518  2.426     4.9 / 289  18.3  150  .00

          18 18  08 40.44  +35 20.1   1.524  2.426     4.6 / 287  18.3  136  .02

          19 18  08 40.08  +35 21.5   1.529  2.427     4.3 / 285  18.3  122  .06

          20 18  08 39.74  +35 22.6   1.535  2.428     3.9 / 283  18.3  108  .13

          21 18  08 39.43  +35 23.5   1.541  2.428     3.6 / 280  18.3   93  .22

          22 18  08 39.13  +35 24.2   1.548  2.429     3.3 / 277  18.3   79  .32

          23 18  08 38.87  +35 24.6   1.554  2.430     3.0 / 273  18.3   65  .44

          24 18  08 38.63  +35 24.7   1.561  2.430     2.6 / 268  18.3   52  .55

          25 18  08 38.41  +35 24.6   1.568  2.431     2.3 / 263  18.3   39  .65

          26 18  08 38.22  +35 24.3   1.575  2.432     2.1 / 255  18.3   27  .75

          27 18  08 38.06  +35 23.8   1.582  2.433     1.8 / 246  18.4   17  .83

          28 18  08 37.92  +35 23.1   1.590  2.434     1.6 / 234  18.4   13  .90

     Mar.  1 18  08 37.81  +35 22.1   1.598  2.435     1.6 / 220  18.4   19  .95

NAKANO

         **** Don't distribute anyone except personal use only ****

                (C) Copyright 2007 OAA/ComputingSection

write mail from CFAD0::NAKANO on 2007-01-23 05:34:38(JST).

 





戻ります。